[[{"header":{"parameterUnit":"m.s-1","parameterCategory":1,"la1":30.2992,"la2":30.254,"lo1":-89.0895,"lo2":-89.0443,"dy":0.0025,"dx":0.0025,"nx":19,"ny":19,"refTime":"2026-03-27T21:00:00:Z","depth":0,"parameterNumber":2,"parameterNumberName":"U-component_of_WINDS"},"data":[0,0,0,-7.2788,-7.2792,-7.2935,-7.2936,-7.3145,-7.3147,0,0,0,0,0,0,0,0,0,0,0,-7.2764,-7.2766,-7.2788,-7.2792,-7.2935,-7.2936,-7.3145,-7.3147,0,0,0,0,0,0,0,0,0,0,0,-7.2763,-7.2766,-7.2768,-7.2793,-7.2935,-7.2936,-7.3144,-7.3026,0,0,0,0,0,0,0,0,0,0,-7.2882,-7.2878,-7.2765,-7.2768,-7.2794,-7.2935,-7.2936,-7.302,-7.3034,-7.3092,0,-7.3151,0,-7.3153,-7.3163,-7.3164,0,0,0,-7.2778,-7.2867,-7.289,-7.2769,-7.2795,-7.2935,-7.2867,-7.3027,-7.3043,-7.311,-7.3154,-7.316,-7.3156,-7.3165,-7.3166,-7.3553,-7.3555,0,0,-7.277,-7.2799,-7.2879,-7.29,-7.2882,-7.2862,-7.2871,-7.3036,-7.3084,-7.3154,-7.3165,-7.316,-7.3166,-7.3168,-7.3551,-7.3554,0,0,0,-7.2757,-7.2794,-7.2812,-7.2893,-7.2917,-7.2867,-7.2877,-7.3077,-7.3081,-7.3167,-7.3162,-7.3168,-7.3171,-7.3548,-7.3552,-7.3698,0,0,0,-7.2752,-7.2786,-7.2809,-7.2828,-7.2914,-7.2999,-7.2915,-7.3069,-7.3087,-7.3161,-7.3168,-7.3173,-7.3545,-7.355,-7.3688,-7.3762,0,0,0,-7.2748,-7.2785,-7.2813,-7.2829,-7.2892,-7.2996,-7.3008,-7.3072,-7.3085,-7.3164,-7.3174,-7.3543,-7.3549,-7.368,-7.3747,-7.3869,0,0,0,-7.2753,-7.2942,-7.2816,-7.3026,-7.2891,-7.3088,-7.3007,-7.3152,-7.3238,-7.3169,-7.3545,-7.3551,-7.3677,-7.3738,-7.386,-7.3973,-7.4025,0,0,-7.3007,-7.2974,-7.3095,-7.2986,-7.3212,-7.3063,-7.331,-7.3362,-7.3343,-7.3484,-7.3493,-7.3692,-7.3746,-7.3867,-7.4311,-7.4352,0,0,0,-7.3185,-7.3272,-7.3326,-7.341,-7.3455,-7.3498,-7.3509,-7.3528,-7.3646,-7.3422,-7.377,-7.3802,-7.3871,-7.3924,-7.3959,-7.4015,-7.3578,-7.3578,-7.3577,-7.3583,-7.355,-7.3747,-7.3732,-7.3814,-7.3824,-7.3887,-7.3913,-7.3856,-7.3939,-7.3979,-7.4252,-7.4316,-7.4341,-7.4401,-7.404,-7.4041,-7.4042,-7.4042,-7.3949,-7.4065,-7.3986,-7.4148,-7.4111,-7.4247,-7.4264,-7.4219,-7.4338,-7.422,-7.428,-7.4149,-7.4388,-7.4437,-7.4053,-7.4051,-7.405,-7.4049,-7.4048,-7.4202,-7.4251,-7.4273,-7.4389,-7.4483,-7.4462,-7.458,-7.4543,-7.451,-7.4569,-7.4605,-7.4602,-7.4591,-7.459,-7.4591,-7.4592,-7.4593,-7.4593,-7.4594,-7.4453,-7.4473,-7.4577,-7.4642,-7.469,-7.4749,-7.4762,-7.4808,-7.4849,-7.4813,-7.4813,-7.4745,-7.4419,-7.4335,-7.4608,-7.4606,-7.4604,-7.4603,-7.4602,-7.4827,-7.4737,-7.4898,-7.4947,-7.5018,-7.5112,-7.5066,-7.5163,-7.5196,-7.5255,-7.5176,-7.4943,-7.4905,-7.4877,-7.4807,-7.5185,-7.5185,-7.5185,-7.5186,-7.5036,-7.5016,-7.517,-7.525,-7.5324,-7.5299,-7.5479,-7.5492,-7.549,-7.5508,-7.545,-7.5356,-7.5329,-7.5306,-7.5269,-7.5202,-7.5673,-7.5674,-7.5674,-7.5262,-7.5247,-7.5407,-7.5406,-7.5459,-7.5506,-7.5673,-7.5766,-7.5747,-7.5693,-7.5521,-7.55,-7.5347,-7.5301,-7.5238,-7.5181,-7.5058,0,0]},{"header":{"parameterUnit":"m.s-1","parameterCategory":1,"la1":30.2992,"la2":30.254,"lo1":-89.0895,"lo2":-89.0443,"dy":0.0025,"dx":0.0025,"nx":19,"ny":19,"refTime":"2026-03-27T21:00:00:Z","depth":0,"parameterNumber":3,"parameterNumberName":"V-component_of_WINDS"},"data":[0,0,0,1.5983,1.5984,1.601,1.601,1.6047,1.6048,0,0,0,0,0,0,0,0,0,0,0,1.5978,1.5978,1.5983,1.5984,1.601,1.601,1.6047,1.6048,0,0,0,0,0,0,0,0,0,0,0,1.5978,1.5978,1.5979,1.5984,1.601,1.601,1.6047,1.6026,0,0,0,0,0,0,0,0,0,0,1.6,1.5997,1.5978,1.5979,1.5984,1.601,1.601,1.6025,1.6027,1.6037,0,1.6047,0,1.6048,1.605,1.6051,0,0,0,1.5982,1.5995,1.6,1.5979,1.5985,1.601,1.5998,1.6026,1.6029,1.604,1.6047,1.6049,1.6049,1.6051,1.6051,1.6119,1.612,0,0,1.598,1.5983,1.5999,1.6002,1.5999,1.5997,1.5999,1.6028,1.6035,1.6047,1.6049,1.6049,1.6051,1.6051,1.6119,1.6119,0,0,0,1.5978,1.5982,1.5987,1.6001,1.6006,1.5998,1.6,1.6034,1.6035,1.605,1.605,1.6051,1.6052,1.6118,1.6119,1.6144,0,0,0,1.5977,1.5981,1.5986,1.5988,1.6005,1.602,1.6005,1.6033,1.6036,1.605,1.6051,1.6052,1.6118,1.6119,1.6142,1.6154,0,0,0,1.5975,1.5981,1.5986,1.5989,1.6,1.6019,1.6023,1.6034,1.6037,1.6051,1.6052,1.6118,1.6119,1.614,1.6151,1.6173,0,0,0,1.5974,1.6004,1.5986,1.6021,1.6,1.6036,1.6022,1.6048,1.6063,1.6051,1.6118,1.6119,1.614,1.615,1.6172,1.6191,1.62,0,0,1.6014,1.6009,1.603,1.6014,1.6054,1.6031,1.6075,1.6084,1.6082,1.6107,1.6109,1.6143,1.6151,1.6173,1.6252,1.6259,0,0,0,1.6044,1.6058,1.6068,1.6084,1.6095,1.6105,1.6109,1.6113,1.6135,1.6096,1.6157,1.6162,1.6175,1.6184,1.619,1.62,1.6124,1.6124,1.6124,1.6101,1.6101,1.6135,1.6138,1.6154,1.6161,1.6173,1.618,1.6171,1.6187,1.6193,1.6241,1.6252,1.6256,1.6268,1.6205,1.6205,1.6205,1.6205,1.6159,1.6179,1.6173,1.6204,1.6203,1.6228,1.6238,1.6232,1.6255,1.6235,1.6246,1.6223,1.6264,1.6274,1.6207,1.6206,1.6206,1.6206,1.6206,1.6195,1.6205,1.6213,1.6239,1.626,1.6263,1.6287,1.6285,1.6283,1.6295,1.6302,1.6301,1.63,1.6299,1.6299,1.6299,1.6299,1.63,1.63,1.6228,1.6237,1.6258,1.6277,1.6289,1.6305,1.6316,1.6328,1.634,1.6337,1.6337,1.6327,1.627,1.6254,1.6302,1.6302,1.6301,1.6301,1.6301,1.6283,1.6272,1.6305,1.6318,1.6341,1.6363,1.6363,1.6389,1.6399,1.6411,1.6402,1.636,1.6354,1.6349,1.6336,1.6402,1.6402,1.6402,1.6402,1.6312,1.6311,1.6347,1.6368,1.6389,1.6394,1.6433,1.6444,1.6452,1.6458,1.645,1.6433,1.6429,1.6425,1.6419,1.6407,1.6489,1.6489,1.6489,1.6346,1.6348,1.638,1.6391,1.6411,1.6428,1.6465,1.649,1.6497,1.6493,1.6463,1.646,1.6434,1.6425,1.6415,1.6405,1.6383,0,0]}]]